Location: 22
(39.7117°N, 89.5929°W)
Time: 19:13:17
(UTC-05:00)

Gurwin Techsat 1B - Pass Details

Date: 05 April 2023
Orbit: 811 x 813 km, 98.9° (Epoch: 06 June)

Event Time Altitude Azimuth Distance (km) Brightness Sun altitude
Rises 05:35:56 0° 352° (N) 3,346 12.0 -12.2°
Reaches altitude 10° 05:39:49 10° 324° (NW) 2,409 10.9 -11.4°
Maximum altitude 05:41:49 12° 301° (WNW) 2,253 10.5 -11.1°
Enters shadow 05:43:41 10° 280° (W) 2,385 10.5 -10.7°
